Regional Weather Roundup
Issued by NWS

Home | Current Version | Previous Version | Graphics & Text | Print | Product List | Glossary On
Versions: 1 2 3 4 5 6 7 8 9 10 11 12 13 14 15 16 17 18 19 20 21 22 23 24 25 26 27 28 29 30 31 32 33 34 35 36 37 38 39 40 41 42 43 44 45 46 47 48 49 50
000
ASUS43 KLOT 231009
RWRIL

ILLINOIS REGIONAL WEATHER ROUNDUP
NATIONAL WEATHER SERVICE CHICAGO/ROMEOVILLE IL
500 AM CDT SAT JUL 23 2016

NOTE: "FAIR" INDICATES FEW OR NO CLOUDS BELOW 12,000 FEET WITH NO
SIGNIFICANT WEATHER AND/OR OBSTRUCTIONS TO VISIBILITY.

* THESE STATIONS ARE NOT UNDER NWS QUALITY CONTROL. THEY ALSO MAY NOT
  REPORT WEATHER SUCH AS PRECIPITATION OR FOG.

ILZ001-002-007-009-015-016-024-231100-
NORTHWEST ILLINOIS

CITY           SKY/WX    TMP DP  RH WIND       PRES   REMARKS
MOLINE         CLEAR     75  72  90 CALM      29.97F
STERLING*      CLOUDY    76  76 100 CALM      29.99S
SAVANNA*       MOCLDY    74  73  99 CALM      29.98R FOG
$$

ILZ003-004-008-010-011-017-018-231100-
NORTH CENTRAL ILLINOIS

CITY           SKY/WX    TMP DP  RH WIND       PRES   REMARKS
ROCKFORD       PTCLDY    76  73  91 CALM      30.00R
FREEPORT*      CLOUDY    72  71  98 CALM      30.01S FOG
ROCHELLE*      MOCLDY    71  71  99 CALM      29.99F FOG
DE KALB*       CLEAR     73  72  98 CALM      30.01R FOG
$$

ILZ005-006-012>014-019>023-231100-
NORTHEAST ILLINOIS

CITY           SKY/WX    TMP DP  RH WIND       PRES   REMARKS
CHICAGO-OHARE  MOCLDY    78  75  90 W3        29.97F HX  81
CHICAGO-MIDWAY CLOUDY    81  75  82 CALM      29.97F HX  87
AURORA         CLEAR     74  73  97 CALM      29.98F FOG
LANSING*       CLEAR     75  73  93 CALM      29.98F
JOLIET*        FOG       75  75  99 CALM      29.98F VSB 1
WAUKEGAN       CLEAR     77  75  93 W3        29.97S
DUPAGE AIRPORT CLEAR     76  73  91 CALM      29.98F
WHEELING       CLEAR     79  74  84 CALM      29.99S HX  82
MORRIS*        CLEAR     74  73  96 CALM      29.97F
ROMEOVILLE*    CLEAR     74  72  94 CALM      29.99S
NORTHERLY ISL    N/A     80  74  81 W6          N/A  HX  85
$$

LMZ740>746-231100-
SOUTHERN LAKE MICHIGAN

STATION/POSITION SKY/WX   TEMP    WIND        PRES    VSBY  WAVE
                          AIR SEA DIR/SP/G                  HT/PER
                          (F)     (DEG/KT/KT) (MB)    (MI)  (FT/S)
SOUTHERN BUOY              75 73  180/  4/  4 1014.1F         0
WILMETTE HARBOR            75 69  250/  4/  6   N/A           0
HARRISON CRIB              82     280/  6/  7   N/A
BURNHAM HARBOR             80     260/  5/  7   N/A
CALUMET HARBOR             79     220/  3/  4 1014.9R
BURNS HARBOR               78     210/  7/  9 1015.9S
MICHIGAN CITY              77     190/  7/  7   N/A
MICHIGAN CITY 6N           76 74  220/  4/  6   N/A           1
ST. JOSEPH                 76 75  160/  4/  4 1014.8F         0
$$

ILZ025>027-034>036-040-047-049-050-058-095>099-231100-
WEST-CENTRAL ILLINOIS

CITY           SKY/WX    TMP DP  RH WIND       PRES   REMARKS
QUINCY         CLEAR     74  73  97 S3        29.97F
GALESBURG*     MOCLDY    73  73  98 E3        29.99S FOG
MACOMB*          N/A     72  72  99 CALM      30.00S FOG
JACKSONVILLE*  CLEAR     73  71  95 E3        29.98S
PITTSFIELD*    CLEAR     74  73  99 CALM      29.99F
$$

ILZ028>032-037-038-041>044-048-051>054-059>061-231100-
CENTRAL ILLINOIS

CITY           SKY/WX    TMP DP  RH WIND       PRES   REMARKS
PONTIAC        CLEAR     73  73 100 CALM      30.00S FOG
BLOOMINGTON    CLEAR     73  71  93 S3        30.01S
DECATUR        CLEAR     73  70  90 S3        30.00R
PEORIA         CLEAR     76  75  97 CALM      29.98F
LACON*         CLEAR     74  73  96 CALM      29.98S
LINCOLN*       CLEAR     73  73 100 CALM      29.99S
SPRINGFIELD    CLEAR     74  72  93 CALM      29.99S
TAYLORVILLE    CLEAR     71  71 100 CALM      29.99S FOG
$$

ILZ033-039-045-046-055>057-062-063-231100-
EAST-CENTRAL ILLINOIS

CITY           SKY/WX    TMP DP  RH WIND       PRES   REMARKS
CHAMPAIGN      CLEAR     73  71  93 CALM      30.01S
MATTOON        CLEAR     72  70  93 CALM      29.99S
PARIS*         CLEAR     68  68 100 CALM      30.02R
$$

ILZ079-100>102-231100-
SOUTHWEST ILLINOIS

CITY           SKY/WX    TMP DP  RH WIND       PRES   REMARKS
ALTON          FOG       70  70  99 CALM      29.99S VSB 1
BELLEVILLE     CLEAR     73  73 100 CALM      29.98R
CAHOKIA*       CLOUDY    74  71  91 SE3       29.98S
SPARTA*        CLEAR     72  71  99 CALM      30.00S
$$

ILZ064>066-069>071-074>076-080>082-084>086-088>090-092>094-231100-
SOUTH-CENTRAL ILLINOIS

CITY           SKY/WX    TMP DP  RH WIND       PRES   REMARKS
CARBONDALE     FOG       73  71  93 CALM      29.99S VSB 1/2
CAIRO*         FOG       73  73 100 CALM      29.98S VSB 1
EFFINGHAM*     PTCLDY    71  71 100 CALM      30.01S
MARION         FOG       73  73 100 CALM      29.99F VSB 1/2
MT. VERNON     PTCLDY    70  66  88 CALM      30.00S
CENTRALIA*     PTCLDY    71  71 100 CALM      29.99S
SALEM*         PTCLDY    72  71  96 CALM      30.00S FOG
METROPOLIS*    FOG       74  73  99 CALM      29.99S VSB 3/4
$$

ILZ067-068-072-073-078-083-087-091-231100-
SOUTHEAST ILLINOIS

CITY           SKY/WX    TMP DP  RH WIND       PRES   REMARKS
LAWRENCEVILLE  FOG       73  73 100 CALM      30.00S VSB 3/4
FLORA*         FOG       72  71  98 CALM      30.00S VSB 1/2
FAIRFIELD*     PTCLDY    73  73 100 CALM      29.99S FOG
HARRISBURG*    FOG       76  76 100 CALM      29.99S VSB 1/4
ROBINSON*      FOG       69  69 100 CALM      30.01S VSB 1/2
CARMI*         FOG       74  74 100 CALM      29.98F VSB 1/2
$$

ABBREVIATIONS USED IN REMARKS
   TC - TEMPERATURE IN CELSIUS
  WCI - WIND CHILL INDEX
   HX - HEAT INDEX
  VSB - VISIBILITY
$$




USA.gov is the U.S. government's official web portal to all federal, state and local government web resources and services.